Weather History for KMDW - January, 2013

Change the Weather History Date:

Wednesday, January 23, 2013

  Actual Average Record
Temperature  
Mean Temperature 15 °F 25 °F  
Max Temperature 20 °F 31 °F 59 °F (1967)
Min Temperature 10 °F 18 °F -19 °F (1936)
Degree Days  
Heating Degree Days 50 40  
Month to date heating degree days 866 919  
Since 1 July heating degree days 2829 3170  
Cooling Degree Days 0 0  
Month to date cooling degree days 0 0  
Year to date cooling degree days 0 0  
Moisture  
Dew Point 6 °F    
Average Humidity 62    
Maximum Humidity 80    
Minimum Humidity 35    
Precipitation  
Precipitation T in 0.06 in 0.73 in (1999)
Month to date precipitation 0.84 1.61  
Year to date precipitation 0.84 1.61  
Sea Level Pressure  
Sea Level Pressure 30.25 in    
Wind  
Wind Speed 11 mph (West)    
Max Wind Speed 25 mph    
Max Gust Speed 32 mph    
Visibility 7 miles    
Events Snow    
T = Trace of Precipitation, MM = Missing Value Source: NWS Daily Summary

Daily Weather History Graph

Daily Weather History Graph

Search for Another Location

Airport or City:

Trip Planner

Search our weather history database for the weather conditions in past years. The results will help you decide how hot, cold, wet, or windy it might be!

Date:

Astronomy

Jan. 23, 2013 Rise Set
Actual Time 7:11 AM CST 4:55 PM CST
Civil Twilight 6:40 AM CST 5:25 PM CST
Nautical Twilight 6:07 AM CST 5:59 PM CST
Astronomical Twilight 5:34 AM CST 6:32 PM CST
Moon 2:04 PM CST (1/23) 4:22 AM CST (1/23)
Length of Visible Light 10h 44m
Length of Day
9h 44m
Waxing Gibbous, 89% of the Moon is Illuminated
Jan 23
Waxing Gibbous
Jan 26
Full
Feb 3
Last Quarter
Feb 10
New
Feb 17
First Quarter

Hourly Weather History & Observations

Time (CST) Temp. Windchill Dew Point Humidity Pressure Visibility Wind Dir Wind Speed Gust Speed Precip Events Conditions
12:51 AM 10.4 °F 4.0 °F -5.8 °F 48% 30.39 in 10.0 mi WNW 3.5 mph - N/A   Overcast
1:51 AM 10.9 °F 0.2 °F -5.1 °F 49% 30.38 in 10.0 mi West 6.9 mph - N/A   Overcast
2:51 AM 10.9 °F -0.8 °F -4.0 °F 51% 30.38 in 10.0 mi West 8.1 mph - N/A   Overcast
3:51 AM 12.0 °F 0.5 °F -2.9 °F 51% 30.37 in 10.0 mi West 8.1 mph - N/A   Overcast
4:51 AM 12.0 °F 2.7 °F -2.0 °F 53% 30.36 in 10.0 mi West 5.8 mph - N/A   Overcast
5:51 AM 12.0 °F 0.5 °F -2.9 °F 51% 30.33 in 10.0 mi WSW 8.1 mph - N/A   Overcast
6:51 AM 12.9 °F 2.6 °F -2.0 °F 51% 30.34 in 10.0 mi West 6.9 mph - N/A   Overcast
7:51 AM 12.9 °F -0.9 °F -2.0 °F 51% 30.33 in 10.0 mi WSW 11.5 mph - N/A   Overcast
8:51 AM 14.0 °F 1.2 °F -0.0 °F 54% 30.32 in 10.0 mi SW 10.4 mph - N/A   Overcast
9:51 AM 15.1 °F 3.3 °F 1.0 °F 54% 30.32 in 10.0 mi WSW 9.2 mph - 0.00 in   Overcast
10:51 AM 16.0 °F 2.9 °F 1.9 °F 54% 30.30 in 10.0 mi WSW 11.5 mph - 0.00 in Snow Light Snow
11:51 AM 16.0 °F 2.3 °F 6.1 °F 65% 30.27 in 10.0 mi SW 12.7 mph - 0.00 in Snow Light Snow
12:51 PM 18.0 °F 5.4 °F 7.0 °F 62% 30.21 in 10.0 mi SSW 11.5 mph - 0.00 in Snow Light Snow
1:51 PM 19.4 °F 9.5 °F 8.6 °F 63% 30.12 in 6.0 mi SW 8.1 mph - N/A Snow Light Snow
2:51 PM 19.4 °F 7.2 °F 10.4 °F 68% 30.10 in 5.0 mi SW 11.5 mph - N/A Snow Light Snow
3:26 PM 19.4 °F 9.5 °F 12.2 °F 74% 30.11 in 1.5 mi WSW 8.1 mph - 0.00 in Snow Light Snow
3:51 PM 19.9 °F 7.3 °F 12.0 °F 71% 30.17 in 1.5 mi WSW 12.7 mph - 0.00 in Snow Light Snow
3:54 PM 19.4 °F 7.2 °F 12.2 °F 74% 30.11 in 1.5 mi WSW 11.5 mph - 0.00 in Snow Light Snow
3:56 PM 19.4 °F 7.9 °F 12.2 °F 74% 30.11 in 1.5 mi WSW 10.4 mph - 0.00 in Snow Light Snow
4:10 PM 19.4 °F 7.9 °F 12.2 °F 74% 30.11 in 5.0 mi WSW 10.4 mph - 0.00 in Snow Light Snow
4:51 PM 19.0 °F 7.5 °F 10.9 °F 71% 30.17 in 9.0 mi WSW 10.4 mph - 0.00 in Snow Light Snow
5:51 PM 19.9 °F 7.9 °F 9.0 °F 62% 30.18 in 9.0 mi WNW 11.5 mph - 0.00 in Snow Light Snow
6:51 PM 19.9 °F 11.1 °F 10.0 °F 65% 30.20 in 9.0 mi WNW 6.9 mph - 0.00 in   Overcast
7:51 PM 19.9 °F 7.9 °F 10.9 °F 68% 30.22 in 7.0 mi NW 11.5 mph 20.7 mph 0.00 in Snow Light Snow
8:38 PM 19.4 °F 8.6 °F 12.2 °F 74% 30.17 in 2.0 mi NW 9.2 mph - 0.00 in Snow Light Snow
8:51 PM 19.0 °F 7.5 °F 12.9 °F 77% 30.24 in 2.0 mi NNW 10.4 mph - 0.00 in Snow Light Snow
8:58 PM 19.4 °F 1.8 °F 14.0 °F 80% 30.19 in 0.1 mi NNW 25.3 mph 32.2 mph 0.00 in Snow Heavy Snow
9:03 PM 17.6 °F 0.9 °F 12.2 °F 79% 30.19 in 1.0 mi NW 20.7 mph 32.2 mph 0.00 in Snow Light Snow
9:06 PM 17.6 °F 2.2 °F 12.2 °F 79% 30.20 in 2.5 mi NW 17.3 mph 32.2 mph 0.00 in Snow Light Snow
9:09 PM 17.6 °F 2.2 °F 12.2 °F 79% 30.20 in 3.0 mi NW 17.3 mph 24.2 mph 0.00 in Snow Light Snow
9:29 PM 17.6 °F 1.3 °F 8.6 °F 68% 30.21 in 9.0 mi NNW 19.6 mph 28.8 mph 0.00 in Snow Light Snow
9:51 PM 18.0 °F 1.7 °F 6.1 °F 60% 30.29 in 9.0 mi NNW 19.6 mph 32.2 mph 0.00 in Snow Light Snow
10:51 PM 15.1 °F -2.5 °F 3.0 °F 59% 30.33 in 9.0 mi NNW 20.7 mph 29.9 mph 0.00 in   Scattered Clouds
11:51 PM 12.9 °F -1.6 °F 1.9 °F 62% 30.38 in 10.0 mi NNW 12.7 mph - N/A   Partly Cloudy